Location: ?????????
(38.0736°N, 23.2119°E)
Time: 11:10:36
(UTC+00:00)

Genesis I - Pass Details

Date: 18 April 2024
Orbit: 439 x 467 km, 64.5° (Epoch: 18 May)

Event Time Altitude Azimuth Distance (km) Brightness Sun altitude
Rises 19:16:44 0° 332° (NNW) 2,526 7.8 -23.8°
Reaches altitude 10° 19:18:53 10° 335° (NNW) 1,649 6.6 -24.1°
Enters shadow 19:21:28 41° 354° (N) 704 4.1 -24.5°
